Location: General Nathan Twining Observatory
(34.5931°N, 106.8201°W)
Time: 15:31:30
(UTC-06:00)

Cosmos 2228 - Pass Details

Date: 20 September 2017
Orbit: 589 x 620 km, 82.5° (Epoch: 21 October)

Event Time Altitude Azimuth Distance (km) Brightness Sun altitude
Rises 20:21:57 0° 189° (S) 2,877 6.5 -16.3°
Reaches altitude 10° 20:24:11 10° 191° (S) 1,973 5.6 -16.7°
Maximum altitude 20:28:33 75° 276° (W) 639 3.2 -17.6°
Drops below altitude 10° 20:32:55 10° 3° (N) 1,971 5.8 -18.5°
Sets 20:35:08 0° 5° (N) 2,874 6.6 -18.9°
